Regional Weather Roundup
Issued by NWS

Home | Current Version | Previous Version | Text Only | Print | Product List | Glossary On
Versions: 1 2 3 4 5 6 7 8 9 10 11 12 13 14 15 16 17 18 19 20 21 22 23 24 25 26 27 28 29 30 31 32 33 34 35 36 37 38 39 40 41 42 43 44 45 46 47 48 49 50
584
ASUS44 KFWD 220815
RWRTX
NORTH TEXAS HOURLY WEATHER ROUNDUP
NATIONAL WEATHER SERVICE FORT WORTH TX
300 AM CDT SUN APR 22 2018

NOTE: "FAIR" INDICATES FEW OR NO CLOUDS BELOW 12,000 FEET WITH NO
SIGNIFICANT WEATHER AND/OR OBSTRUCTIONS TO VISIBILITY.

TXZ118-119-220900-
DALLAS/FORT WORTH METROPLEX

CITY           SKY/WX    TMP DP  RH WIND       PRES   REMARKS
DFW AIRPORT    CLOUDY    53  49  86 N14       30.03S
DALLAS LOVE    MOCLDY    54  48  80 N14       30.04S
FTW MEACHAM    CLOUDY    54  48  80 N14G23    30.05F
DAL-EXECUTIVE  CLOUDY    53  48  83 NW16      30.03S
FTW-ALLIANCE   CLOUDY    52  47  83 N18       30.05F
FTW-NAS-JRB    CLOUDY    53  46  77 N20G28    30.06F
FTW-SPINKS     CLOUDY    52  47  84 N14       30.07S
ARLINGTON      CLOUDY    52  49  89 NW9       30.05S
GRAND PRAIRIE  CLOUDY    53  46  77 NW8G22    30.07S
ADDISON        CLOUDY    52  48  84 NW12      30.07R
MESQUITE       CLOUDY    52  49  87 NW13G20   30.04R
LANCASTER      CLOUDY    53  47  82 N13G22    30.05R
$$

TXZ091>094-102>105-117-120-121-131>134-220900-
NORTH CENTRAL TEXAS

CITY           SKY/WX    TMP DP  RH WIND       PRES   REMARKS
SHRMAN/DENISON CLOUDY    51  48  92 NW12      30.04F
GAINESVILLE    CLOUDY    50  47  89 NW13      30.08F
BOWIE          CLOUDY    50  47  89 N14G21    30.07F
BRIDGEPORT     CLOUDY    52  47  82 N12G20    30.09F
DECATUR        CLOUDY    50  46  85 NW8       30.06F
DENTON         CLOUDY    52  48  86 N13       30.05S
MCKINNEY       CLOUDY    52  51  97 NW13      30.04R
BONHAM         CLOUDY    50  49  97 NW9       30.02S
GREENVILLE     CLOUDY    55  54  94 NW13G22   30.01S
ROCKWALL       CLOUDY    53  51  94 MISG      30.03S
TERRELL        CLOUDY    54  50  86 NW12      30.02S
WAXAHACHIE     CLOUDY    51  51  97 NW15      30.05S
CLEBURNE       CLOUDY    50  48  93 N20G25    30.07S
GRANBURY       MOCLDY    53  48  83 NW8       30.09S
$$

TXZ083>090-098>101-113>116-127>130-139>142-154-155-220900-
WESTERN NORTH TEXAS

CITY           SKY/WX    TMP DP  RH WIND       PRES   REMARKS
WICHITA FALLS  CLOUDY    49  45  86 N6        30.11F
WF-KICKAPOO    CLOUDY    50  46  84 N10       30.13F
VERNON         FAIR      51  47  86 N16       30.13F
ABILENE        FAIR      48  46  93 N8        30.12F
ABILENE-DYESS  MOCLDY    50  43  76 N9        30.13R
GRAHAM           N/A     49  32  52 N8        30.08F
BRECKENRIDGE   FAIR      49  46  88 N7        30.11S
CISCO          FAIR      48  46  93 N12G17    30.11R
EASTLAND       FAIR      47  45  91 N9        30.10S
RANGER         FAIR      48  47  95 N10       30.09S
MINERAL WELLS  FAIR      50  46  86 NW14      30.07S
STEPHENVILLE   MOCLDY    51  47  86 N16       30.09F
COMANCHE       FAIR      48  48 100 NW6       30.09S
COLEMAN        FAIR      49  45  84 NW6       30.11S
BRADY          CLOUDY    50  46  87 N6        30.11S
$$

TXZ143>147-156>162-174-175-220900-
CENTRAL TEXAS

CITY           SKY/WX    TMP DP  RH WIND       PRES   REMARKS
WACO           FAIR      53  49  86 NW13      30.04F
WACO-MCGREGOR  FAIR      51  49  92 NW8       30.05F
HILLSBORO      MOCLDY    52  51  95 NW14      30.04S
CORSICANA      CLOUDY    55  52  89 N9        30.03S
MEXIA          MOCLDY    54  51  90 N7        30.00F
HEARNE         CLOUDY    57  56  94 NW8       30.02F
CAMERON        MOCLDY    57  51  82 N10G20    30.02F
TEMPLE         FAIR      52  51  97 NW9       30.05S
KILLEEN        CLEAR     52  46  82 NW10      30.06F
KILLEEN-SKYLRK FAIR      53  49  86 NW9       30.06S
FORT HOOD      FAIR      51  49  92 NW13      30.02S
GATESVILLE     FAIR      52  48  87 NW13      30.08S
HAMILTON       FAIR      51  50  95 N7        30.07F
LAMPASAS       FAIR      50  46  88 CALM      30.06F
$$

TXZ095>097-106>112-122>126-135>138-148>153-164>167-220900-
EAST TEXAS

CITY           SKY/WX    TMP DP  RH WIND       PRES   REMARKS
PARIS          CLOUDY    54  54 100 NW9       29.98F
SULPHUR SPRNGS CLOUDY    55  55  99 NW14      30.01S
MOUNT PLEASANT CLOUDY    57  57  99 NW7       29.97F
GILMER         TSTM      57  57 100 W6        29.96S VSB 1
MINEOLA        CLOUDY    55  54  94 NW9       29.98F
TYLER          CLOUDY    56  56 100 NW14      29.97S
LONGVIEW       CLOUDY    60  60 100 W5        29.93F
MARSHALL       CLOUDY    58  56  94 CALM      29.94F
ATHENS         CLOUDY    54  54 100 N7        29.98F
PALESTINE      CLOUDY    56  56 100 NW13G20   30.00R FOG
JACKSONVILLE   CLOUDY    60  60 100 NW8       29.97F FOG
HENDERSON      CLOUDY    60  60  98 CALM      29.94F
CENTER         DRIZZLE   64  63  96 CALM      29.94S
NACOGDOCHES      N/A     65  64  97 CALM      29.93
LUFKIN         CLOUDY    64  64 100 CALM      29.92F FOG
$$

SUPPLEMENTAL OBSERVATIONS (NWS FORT WORTH AREA)

CITY           SKY/WX    TMP DP  RH WIND       PRES   REMARKS
DENISON DAM      N/A     52  48  87 NW23        N/A
CADDO GRASSLND   N/A     52  50  93 N5G13       N/A
LBJ GRASSLAND    N/A     50  46  87 N8          N/A
POSSUM KINGDOM   N/A     48  45  87 NW7         N/A
GRANBURY         N/A     52  46  82 NW10        N/A
COMANCHE         N/A     48  45  87 N8          N/A
MCGREGOR         N/A     52  46  82 NW6         N/A
TEMPLE           N/A     54  50  87 NW12        N/A
LAKE LIMESTONE   N/A     55  50  82 N8G17       N/A
ATHENS           N/A     55  54  94 NW3         N/A
PALESTINE        N/A     57  55  94 NW10        N/A
$$

SUPPLEMENTAL OBSERVATIONS (NWS NORMAN AREA)

CITY           SKY/WX    TMP DP  RH WIND       PRES   REMARKS
GOODLETT         N/A     48  43  84 NW7       30.14F
ODELL            N/A     47  45  90 N12       30.15F
CROWELL          N/A     50  44  79 N12       30.15F
KNOX CITY        N/A     53  43  69 N10       30.16S
SEYMOUR          N/A     50  45  83 NW9       30.14R
MILLERS CREEK    N/A     52  46  82 N8          N/A
$$

SUPPLEMENTAL OBSERVATIONS (NWS SAN ANGELO AREA)

CITY           SKY/WX    TMP DP  RH WIND       PRES   REMARKS
WEINERT          N/A     51  45  79 N12       30.15S
HASKELL          N/A     51  44  75 N13       30.15S
THROCKMORTON     N/A     49  46  92 NW12      30.14R
STAMFORD         N/A     50  46  84 N3        30.15F
CLYDE            N/A     47  44  91 N9        30.12F
HAMBY            N/A     48  45  87 N6G15       N/A
IVIE RESERVOIR   N/A     52  46  82 N5          N/A
COLORADO BEND    N/A     48  43  81 NW2         N/A
$$

SUPPLEMENTAL OBSERVATIONS (NWS SHREVEPORT AREA)

CITY           SKY/WX    TMP DP  RH WIND       PRES   REMARKS
TEXARKANA        N/A     57  55  94 W1          N/A
LINDEN           N/A     57  55  94 W1          N/A
CADDO LAKE       N/A     61  59  94 CALM        N/A
LUFKIN           N/A     64  63  94 MISG        N/A
N SABINE NF      N/A     64  63  94 MISG        N/A
$$

SUPPLEMENTAL OBSERVATIONS ARE A COLLECTION OF AUTOMATED INSTRUMENTS
THAT ARE MAINTAINED BY A VARIETY OF FEDERAL AND STATE AGENCIES.
CERTAIN ELEMENTS...SUCH AS HUMIDITY VALUES AND SUSTAINED WIND
SPEEDS...MAY BE APPROXIMATED.





USA.gov is the U.S. government's official web portal to all federal, state and local government web resources and services.